This demonstration page uses our WeatherBlox Daily Observations layout. Learn more.

Left ArrowRight Arrow

Hourly Observations for March 8, 2022

Temp ( °F °C ) Dew Point ( °F °C ) Humidity (%) Winds ( mph kmh ) Pressure ( in mb ) Visibility ( mi km ) Precip ( " mm )
12:15 am 00:15 Clear 14 -10 10 -12 85 85 W 6 9 30.41 1030 10 16 0.00 0.00
12:35 am 00:35 Clear 14 -10 10 -12 85 85 W 5 7 30.40 1029 10 16 0.00 0.00
12:55 am 00:55 Clear 14 -10 10 -12 85 85 W 6 9 30.39 1029 10 16 0.00 0.00
1:15 am 01:15 Clear 14 -10 10 -12 85 85 W 7 11 30.39 1029 10 16 0.00 0.00
1:35 am 01:35 Clear 14 -10 10 -12 85 85 W 6 9 30.39 1029 10 16 0.00 0.00
1:55 am 01:55 Clear 14 -10 10 -12 85 85 WSW 8 13 30.37 1028 10 16 0.00 0.00
2:15 am 02:15 Clear 14 -10 10 -12 85 85 W 8 13 30.37 1028 10 16 0.00 0.00
2:35 am 02:35 Clear 14 -10 10 -12 85 85 WSW 8 13 30.37 1028 10 16 0.00 0.00
2:55 am 02:55 Clear 14 -10 10 -12 85 85 WSW 10 17 30.37 1028 10 16 0.00 0.00
3:15 am 03:15 Clear 14 -10 10 -12 85 85 WSW 9 15 30.37 1028 10 16 0.00 0.00
3:35 am 03:35 Clear 14 -10 10 -12 85 85 W 7 11 30.37 1028 10 16 0.00 0.00
3:55 am 03:55 Clear 14 -10 10 -12 85 85 W 8 13 30.36 1028 10 16 0.00 0.00
4:15 am 04:15 Clear 12 -11 9 -13 85 85 W 7 11 30.36 1028 10 16 0.00 0.00
4:35 am 04:35 Clear 12 -11 9 -13 85 85 W 5 7 30.36 1028 10 16 0.00 0.00
4:55 am 04:55 Clear 12 -11 9 -13 85 85 W 5 7 30.35 1028 10 16 0.00 0.00
5:15 am 05:15 Clear 12 -11 9 -13 85 85 WSW 6 9 30.34 1027 10 16 0.00 0.00
5:35 am 05:35 Clear 12 -11 9 -13 85 85 WSW 7 11 30.34 1027 10 16 0.00 0.00
5:55 am 05:55 Clear 12 -11 9 -13 85 85 WSW 7 11 30.34 1027 10 16 0.00 0.00
6:15 am 06:15 Clear 12 -11 9 -13 85 85 WSW 8 13 30.33 1027 10 16 0.00 0.00
6:35 am 06:35 Clear 12 -11 9 -13 85 85 W 7 11 30.33 1027 10 16 0.00 0.00
6:55 am 06:55 Clear 12 -11 9 -13 85 85 WSW 7 11 30.33 1027 10 16 0.00 0.00
7:15 am 07:15 Sunny 12 -11 9 -13 85 85 WSW 9 15 30.33 1027 10 16 0.00 0.00
7:35 am 07:35 Sunny 14 -10 10 -12 85 85 WSW 8 13 30.32 1027 10 16 0.00 0.00
7:55 am 07:55 Sunny 18 -8 12 -11 79 79 WSW 10 17 30.30 1026 10 16 0.00 0.00
8:15 am 08:15 Mostly Cloudy 21 -6 16 -9 80 80 W 14 22 30.28 1025 10 16 0.00 0.00
8:35 am 08:35 Cloudy 23 -5 18 -8 80 80 W 14 22 30.27 1025 10 16 0.00 0.00
8:55 am 08:55 Cloudy 27 -3 19 -7 74 74 W 10 17 30.25 1024 10 16 0.00 0.00
9:15 am 09:15 Cloudy 30 -1 21 -6 69 69 W 8 13 30.23 1024 10 16 0.00 0.00
9:35 am 09:35 Cloudy 32 0 21 -6 64 64 WNW 12 19 30.21 1023 10 16 0.00 0.00
9:55 am 09:55 Cloudy 36 2 23 -5 60 60 W 10 17 30.18 1022 10 16 0.00 0.00
10:15 am 10:15 Cloudy 36 2 19 -7 52 52 W 10 17 30.17 1022 10 16 0.00 0.00
10:35 am 10:35 Partly Cloudy 37 3 21 -6 52 52 WNW 12 19 30.15 1021 10 16 0.00 0.00
10:55 am 10:55 Mostly Cloudy 41 5 19 -7 42 42 W 9 15 30.13 1020 10 16 0.00 0.00
11:15 am 11:15 Cloudy 41 5 18 -8 39 39 WNW 10 17 30.12 1020 10 16 0.00 0.00
11:35 am 11:35 Cloudy 43 6 16 -9 34 34 NW 14 22 30.10 1019 10 16 0.00 0.00
11:55 am 11:55 Cloudy 41 5 14 -10 33 33 NW 10 17 30.11 1020 10 16 0.00 0.00
12:15 pm 12:15 Cloudy 39 4 16 -9 39 39 NW 12 19 30.11 1020 10 16 0.00 0.00
12:35 pm 12:35 Mostly Cloudy 41 5 18 -8 39 39 WNW 10 17 30.10 1019 10 16 0.00 0.00
12:55 pm 12:55 Mostly Cloudy 43 6 18 -8 36 36 W 10 17 30.07 1018 10 16 0.00 0.00
1:15 pm 13:15 Cloudy 43 6 18 -8 36 36 WNW 10 17 30.05 1018 10 16 0.00 0.00
1:35 pm 13:35 Cloudy 45 7 18 -8 34 34 WNW 9 15 30.04 1017 10 16 0.00 0.00
1:55 pm 13:55 Mostly Cloudy 48 9 19 -7 32 32 W 6 9 30.00 1016 10 16 0.00 0.00
2:15 pm 14:15 Partly Cloudy 48 9 18 -8 29 29 NW 14 22 29.99 1016 10 16 0.00 0.00
2:35 pm 14:35 Partly Cloudy 48 9 16 -9 27 27 W 15 24 29.98 1015 10 16 0.00 0.00
2:55 pm 14:55 Partly Cloudy 46 8 12 -11 25 25 NW 15 24 29.99 1016 10 16 0.00 0.00
3:15 pm 15:15 Cloudy 48 9 10 -12 21 21 NW 15 24 29.98 1015 10 16 0.00 0.00
3:35 pm 15:35 Cloudy 48 9 10 -12 21 21 WNW 14 22 29.98 1015 10 16 0.00 0.00
3:55 pm 15:55 Partly Cloudy 48 9 10 -12 21 21 NNW 16 26 29.98 1015 10 16 0.00 0.00
4:15 pm 16:15 Sunny 48 9 12 -11 23 23 N 8 13 29.98 1015 10 16 0.00 0.00
4:35 pm 16:35 Sunny 46 8 14 -10 27 27 NNW 10 17 30.00 1016 10 16 0.00 0.00
4:55 pm 16:55 Sunny 45 7 14 -10 29 29 N 18 30 30.01 1016 10 16 0.00 0.00
5:15 pm 17:15 Sunny 45 7 14 -10 29 29 N 15 24 30.02 1017 10 16 0.00 0.00
5:35 pm 17:35 Sunny 43 6 14 -10 31 31 N 12 19 30.04 1017 10 16 0.00 0.00
5:55 pm 17:55 Sunny 41 5 12 -11 31 31 NNE 14 22 30.05 1018 10 16 0.00 0.00
6:15 pm 18:15 Sunny 37 3 23 -5 56 56 NNE 15 24 30.08 1019 10 16 0.00 0.00
6:35 pm 18:35 Sunny 36 2 23 -5 60 60 NNE 9 15 30.10 1019 10 16 0.00 0.00
6:55 pm 18:55 Clear 34 1 23 -5 65 65 NNE 8 13 30.13 1020 10 16 0.00 0.00
7:15 pm 19:15 Clear 30 -1 21 -6 69 69 N 9 15 30.16 1021 10 16 0.00 0.00
7:35 pm 19:35 Clear 32 0 23 -5 69 69 NNE 10 17 30.16 1021 10 16 0.00 0.00
7:55 pm 19:55 Clear 32 0 23 -5 69 69 NNE 13 20 30.17 1022 10 16 0.00 0.00
8:15 pm 20:15 Clear 30 -1 23 -5 75 75 NE 7 11 30.19 1022 10 16 0.00 0.00
8:35 pm 20:35 Clear 30 -1 23 -5 75 75 NE 5 7 30.19 1022 10 16 0.00 0.00
8:55 pm 20:55 Clear 28 -2 21 -6 74 74 NE 6 9 30.21 1023 10 16 0.00 0.00
9:15 pm 21:15 Clear 25 -4 19 -7 80 80 NNE 5 7 30.24 1024 10 16 0.00 0.00
9:35 pm 21:35 Clear 21 -6 18 -8 86 86 NNE 7 11 30.26 1025 10 16 0.00 0.00
9:55 pm 21:55 Clear 25 -4 21 -6 86 86 NE 8 13 30.25 1024 10 16 0.00 0.00
10:15 pm 22:15 Clear 25 -4 21 -6 86 86 NE 9 15 30.24 1024 10 16 0.00 0.00
10:35 pm 22:35 Clear 25 -4 19 -7 80 80 NE 6 9 30.24 1024 10 16 0.00 0.00
10:55 pm 22:55 Clear 23 -5 19 -7 86 86 NE 7 11 30.25 1024 10 16 0.00 0.00
11:15 pm 23:15 Clear 21 -6 18 -8 86 86 NNE 7 11 30.26 1025 10 16 0.00 0.00
11:35 pm 23:35 Clear 18 -8 14 -10 86 86 NNE 5 7 30.30 1026 10 16 0.00 0.00
11:55 pm 23:55 Clear 18 -8 14 -10 86 86 NNE 3 6 30.30 1026 10 16 0.00 0.00

Powered by AerisWeather